EW0680 Weather Reports


time (UTC)temp
C
wind
direction
speed
KPH
gust
KPH
rain 1hr
cm
rain 24hr
cm
rain mn
cm
humidity
%
barometer
mb
20260831123051 22 165 0.0 0.0 0.00 0.00 0.00 88 1018.1
20260831121545 21 165 0.0 0.0 0.00 0.00 0.00 88 1018.0
20260831120041 21 165 0.0 0.0 0.00 0.00 0.00 89 1018.0
20260831114545 20 165 0.0 0.0 0.00 0.00 0.00 89 1018.0
20260831113045 20 165 0.0 0.0 0.00 0.00 0.00 89 1017.9
20260831111534 20 165 0.0 0.0 0.00 0.00 0.00 89 1017.9
20260831110035 20 165 0.0 0.0 0.00 0.00 0.00 89 1017.8
20260831104537 20 165 0.0 0.0 0.00 0.00 0.00 89 1017.6
20260831103044 21 165 0.0 0.0 0.00 0.00 0.00 89 1017.4
20260831101557 21 165 0.0 0.0 0.00 0.00 0.00 89 1017.4
20260831100103 21 165 0.0 0.0 0.00 0.00 0.00 88 1017.3
20260831094615 21 165 0.0 0.0 0.00 0.00 0.00 88 1017.2
20260831093059 21 165 0.0 0.0 0.00 0.00 0.00 88 1017.2
20260831091506 21 165 0.0 0.0 0.00 0.00 0.00 88 1017.3
20260831090011 21 165 0.0 0.0 0.00 0.00 0.00 88 1017.4
20260831084517 21 165 0.0 0.0 0.00 0.00 0.00 88 1017.5
20260831083020 21 165 0.0 0.0 0.00 0.00 0.00 88 1017.4
20260831081526 21 165 0.0 0.0 0.00 0.00 0.00 88 1017.1
20260831080026 21 165 0.0 0.0 0.00 0.00 0.00 88 1017.0
20260831074530 21 165 0.0 0.0 0.00 0.00 0.00 88 1017.0
20260831073035 21 165 0.0 1.6 0.00 0.00 0.00 88 1017.0
20260831071549 21 165 1.6 3.2 0.00 0.00 0.00 88 1017.2
20260831070036 21 170 3.2 4.8 0.00 0.00 0.00 87 1017.2
20260831064541 22 170 0.0 0.0 0.00 0.00 0.00 86 1017.3
20260831063042 22 170 1.6 3.2 0.00 0.00 0.00 86 1017.4
20260831061545 22 170 0.0 0.0 0.00 0.00 0.00 86 1017.6
20260831060026 22 170 0.0 0.0 0.00 0.00 0.00 86 1017.7
20260831054532 22 170 0.0 0.0 0.00 0.00 0.00 86 1017.6
20260831053046 22 170 3.2 6.4 0.00 0.00 0.00 86 1017.7
20260831051535 21 195 1.6 4.8 0.00 0.00 0.00 86 1017.9
20260831050038 21 179 0.0 0.0 0.00 0.00 0.00 87 1017.8
20260831044549 21 179 0.0 6.4 0.00 0.00 0.00 87 1017.9
20260831043048 22 155 3.2 8.0 0.00 0.00 0.00 85 1017.8
20260831041528 21 176 3.2 6.4 0.00 0.00 0.00 86 1017.8
20260831040033 21 131 1.6 4.8 0.00 0.00 0.00 86 1017.9
20260831034530 21 180 3.2 4.8 0.00 0.00 0.00 87 1017.9
20260831033045 21 180 3.2 4.8 0.00 0.00 0.00 87 1018.0
20260831031537 21 180 0.0 0.0 0.00 0.00 0.00 87 1018.1
20260831030041 21 180 0.0 0.0 0.00 0.00 0.00 86 1018.2
20260831024557 22 180 0.0 0.0 0.00 0.00 0.00 85 1018.2
20260831023106 22 180 0.0 3.2 0.00 0.00 0.00 86 1018.1
20260831021602 22 180 0.0 3.2 0.00 0.00 0.00 86 1018.0
20260831021502 22 180 0.0 3.2 0.00 0.00 0.00 86 1018.0
20260831020006 22 180 1.6 4.8 0.00 0.00 0.00 86 1017.9
20260831014508 22 180 0.0 0.0 0.00 0.00 0.00 86 1017.8
20260831013014 22 180 0.0 3.2 0.00 0.00 0.00 86 1017.7
20260831011521 22 180 1.6 4.8 0.00 0.00 0.00 85 1017.7
20260831010004 23 253 0.0 0.0 0.00 0.00 0.00 85 1017.7
20260831004510 23 253 0.0 0.0 0.00 0.00 0.00 83 1017.6
20260831003020 24 253 0.0 0.0 0.00 0.00 0.00 81 1017.5
20260831001530 25 253 0.0 0.0 0.00 0.00 0.00 78 1017.4
20260831000039 25 253 0.0 0.0 0.00 0.00 0.00 77 1017.4
20260830234535 26 253 0.0 0.0 0.00 0.00 0.00 76 1017.5
20260830233028 26 253 0.0 0.0 0.00 0.00 0.00 75 1017.5
20260830231539 26 253 0.0 0.0 0.00 0.00 0.00 75 1017.4
20260830230050 27 253 0.0 0.0 0.00 0.00 0.00 74 1017.2
20260830224551 27 253 0.0 0.0 0.00 0.00 0.00 73 1017.1
20260830223059 27 253 0.0 0.0 0.00 0.00 0.00 69 1017.0
20260830221509 28 253 0.0 0.0 0.00 0.00 0.00 67 1016.9
20260830220010 28 253 0.0 0.0 0.00 0.00 0.00 67 1016.7
20260830214514 28 357 0.0 0.0 0.00 0.00 0.00 67 1016.8
20260830213034 27 271 0.0 0.0 0.00 0.00 0.00 69 1016.9
20260830211547 27 333 0.0 0.0 0.00 0.00 0.00 71 1017.1
20260830210050 28 33 0.0 0.0 0.00 0.00 0.00 70 1017.1
20260830204524 27 140 0.0 0.0 0.00 0.00 0.00 71 1016.9
20260830203043 27 250 0.0 0.0 0.00 0.00 0.00 74 1016.9
20260830201537 26 227 0.0 3.2 0.00 0.00 0.00 73 1016.9
20260830200044 26 194 0.0 3.2 0.00 0.00 0.00 72 1016.9
20260830194550 26 202 3.2 8.0 0.00 0.00 0.00 75 1017.0
20260830193052 26 186 1.6 6.4 0.00 0.00 0.00 74 1017.7
20260830191551 26 174 6.4 11.3 0.00 0.00 0.00 73 1018.3
20260830190051 27 229 0.0 0.0 0.00 0.00 0.00 71 1019.1
20260830184540 27 228 0.0 0.0 0.00 0.00 0.00 69 1019.4
20260830183034 27 228 0.0 0.0 0.00 0.00 0.00 70 1019.6
20260830181533 28 228 0.0 0.0 0.00 0.00 0.00 73 1019.8
20260830180034 27 213 0.0 0.0 0.00 0.00 0.00 71 1020.0
20260830174538 27 345 0.0 4.8 0.00 0.00 0.00 74 1020.2
20260830173035 26 323 0.0 4.8 0.00 0.00 0.00 72 1020.4
20260830171538 27 338 1.6 4.8 0.00 0.00 0.00 72 1020.4
20260830170049 27 339 1.6 8.0 0.00 0.00 0.00 72 1020.4
20260830164555 27 348 3.2 6.4 0.00 0.00 0.00 72 1020.6
20260830163010 26 329 4.8 8.0 0.00 0.00 0.00 74 1020.7
20260830161517 26 346 4.8 6.4 0.00 0.00 0.00 76 1020.7
20260830160055 27 350 0.0 4.8 0.00 0.00 0.00 74 1020.5
20260830154504 27 306 0.0 0.0 0.00 0.00 0.00 77 1020.4
20260830153005 27 50 0.0 1.6 0.00 0.00 0.00 76 1019.9
20260830151517 27 281 1.6 6.4 0.00 0.00 0.00 74 1019.6
20260830150058 26 287 1.6 4.8 0.00 0.00 0.00 79 1019.4
20260830144618 25 266 0.0 0.0 0.00 0.00 0.00 79 1019.0
20260830144501 25 266 0.0 0.0 0.00 0.00 0.00 79 1019.0
20260830143003 25 287 0.0 0.0 0.00 0.00 0.00 80 1018.8
20260830141510 24 263 0.0 3.2 0.00 0.00 0.00 82 1018.9
20260830140018 24 285 0.0 1.6 0.00 0.00 0.00 80 1018.8
20260830134558 23 288 0.0 0.0 0.00 0.00 0.00 83 1018.6
20260830133039 22 281 0.0 0.0 0.00 0.00 0.00 85 1018.7
20260830131544 21 295 0.0 0.0 0.00 0.00 0.00 86 1018.9
20260830130105 21 176 0.0 0.0 0.00 0.00 0.00 87 1019.0
20260830124551 20 176 0.0 0.0 0.00 0.00 0.00 88 1019.1